Station Historical Data
Daily Summary for May 18, 2017 Units:  Metric    English   Both
« Previous Day
Next Day »
Daily Weekly Monthly Yearly Custom
  High: Low: Average:
Temperature: 28.4 °C 20.8 °C 24.3 °C
Dew Point: 18.6 °C 13.4 °C 15.6 °C
Humidity: 66% 52% 58%
Wind Speed: 29km/h 1.6km/h 10.9km/h
Wind Gust: 45.1km/h - -
Wind- - SW
Pressure: 1009.7 hPa 1006.3 hPa -
Precipitation: 0 mm    
Historical Graphs
 
 
Tabular Data for May 18, 2017
Time Temperature Dew Point Pressure Wind Wind Speed Wind Gust Humidity Rainfall Rate (Hourly)
00:00 23.8 °C 15.3 °C 1008.7 hPa SSW 8 km/h 16.1 km/h 59% 0 mm
00:05 23.8 °C 15.3 °C 1008.7 hPa SSW 4.8 km/h 14.5 km/h 59% 0 mm
00:10 23.8 °C 15.3 °C 1008.7 hPa SW 3.2 km/h 11.3 km/h 59% 0 mm
00:15 23.8 °C 15.3 °C 1008.7 hPa SSW 6.4 km/h 12.9 km/h 59% 0 mm
00:20 23.8 °C 15.3 °C 1008.7 hPa SSW 6.4 km/h 17.7 km/h 59% 0 mm
00:25 23.9 °C 15.4 °C 1008.7 hPa SSW 9.7 km/h 16.1 km/h 59% 0 mm
00:30 23.9 °C 15.4 °C 1008.7 hPa SSW 4.8 km/h 16.1 km/h 59% 0 mm
00:35 23.8 °C 15.3 °C 1008.4 hPa SW 4.8 km/h 12.9 km/h 59% 0 mm
00:40 23.7 °C 15.2 °C 1008.4 hPa SSW 4.8 km/h 16.1 km/h 59% 0 mm
00:45 23.7 °C 15.4 °C 1008.4 hPa SW 6.4 km/h 16.1 km/h 60% 0 mm
00:50 23.6 °C 15.4 °C 1008.4 hPa SW 4.8 km/h 12.9 km/h 60% 0 mm
00:55 23.6 °C 15.3 °C 1008.4 hPa SW 6.4 km/h 12.9 km/h 60% 0 mm
01:00 23.5 °C 15.3 °C 1008.7 hPa SSW 8 km/h 11.3 km/h 60% 0 mm
01:05 23.5 °C 15.3 °C 1008.7 hPa SSW 6.4 km/h 12.9 km/h 60% 0 mm
01:10 23.4 °C 15.2 °C 1008.7 hPa SW 4.8 km/h 11.3 km/h 60% 0 mm
01:15 23.4 °C 15.2 °C 1008.7 hPa SW 6.4 km/h 11.3 km/h 60% 0 mm
01:20 23.6 °C 15.3 °C 1009 hPa SW 6.4 km/h 16.1 km/h 60% 0 mm
01:25 23.7 °C 15.2 °C 1009 hPa SW 8 km/h 17.7 km/h 59% 0 mm
01:30 23.7 °C 15.2 °C 1009 hPa WSW 9.7 km/h 12.9 km/h 59% 0 mm
01:35 23.7 °C 15.2 °C 1009 hPa SW 6.4 km/h 12.9 km/h 59% 0 mm
01:40 23.7 °C 14.9 °C 1009 hPa SSW 4.8 km/h 19.3 km/h 58% 0 mm
01:45 23.7 °C 14.9 °C 1009.4 hPa SW 6.4 km/h 19.3 km/h 58% 0 mm
01:50 23.8 °C 15 °C 1009.4 hPa South 6.4 km/h 22.5 km/h 58% 0 mm
01:55 23.8 °C 14.8 °C 1009.4 hPa SW 8 km/h 22.5 km/h 57% 0 mm
02:00 23.9 °C 14.8 °C 1009.4 hPa SW 8 km/h 17.7 km/h 57% 0 mm
02:05 23.9 °C 14.8 °C 1009.4 hPa SW 9.7 km/h 17.7 km/h 57% 0 mm
02:10 23.8 °C 14.8 °C 1009.4 hPa West 8 km/h 16.1 km/h 57% 0 mm
02:15 23.7 °C 14.7 °C 1009.4 hPa SW 8 km/h 16.1 km/h 57% 0 mm
02:20 23.7 °C 14.7 °C 1009.7 hPa WSW 11.3 km/h 17.7 km/h 57% 0 mm
02:25 23.6 °C 14.6 °C 1009.7 hPa SW 8 km/h 11.3 km/h 57% 0 mm
02:30 23.4 °C 14.7 °C 1009.4 hPa SW 6.4 km/h 16.1 km/h 58% 0 mm
02:35 23.3 °C 14.6 °C 1009.4 hPa SW 1.6 km/h 11.3 km/h 58% 0 mm
02:40 23.3 °C 14.6 °C 1009.4 hPa SW 3.2 km/h 11.3 km/h 58% 0 mm
02:45 23.2 °C 14.7 °C 1009.4 hPa SW 4.8 km/h 11.3 km/h 59% 0 mm
02:50 23.2 °C 14.7 °C 1009.4 hPa SW 6.4 km/h 14.5 km/h 59% 0 mm
02:55 23.2 °C 14.7 °C 1009.4 hPa SW 8 km/h 14.5 km/h 59% 0 mm
03:00 23.3 °C 14.6 °C 1009.4 hPa SW 6.4 km/h 14.5 km/h 58% 0 mm
03:05 23.3 °C 14.6 °C 1009.4 hPa SW 6.4 km/h 14.5 km/h 58% 0 mm
03:10 23.4 °C 14.7 °C 1009 hPa SW 6.4 km/h 11.3 km/h 58% 0 mm
03:15 23.4 °C 14.7 °C 1009 hPa WSW 4.8 km/h 12.9 km/h 58% 0 mm
03:20 23.5 °C 14.8 °C 1009 hPa SW 9.7 km/h 12.9 km/h 58% 0 mm
03:25 23.4 °C 14.7 °C 1009 hPa WSW 9.7 km/h 17.7 km/h 58% 0 mm
03:30 23.4 °C 14.7 °C 1009 hPa SW 16.1 km/h 16.1 km/h 58% 0 mm
03:35 23.6 °C 14.8 °C 1009 hPa SSW 6.4 km/h 17.7 km/h 58% 0 mm
03:40 23.5 °C 14.8 °C 1009 hPa West 4.8 km/h 16.1 km/h 58% 0 mm
03:45 23.4 °C 14.7 °C 1009 hPa SW 8 km/h 16.1 km/h 58% 0 mm
03:50 23.3 °C 14.6 °C 1009 hPa SW 6.4 km/h 14.5 km/h 58% 0 mm
03:55 23.2 °C 14.5 °C 1009 hPa SW 6.4 km/h 14.5 km/h 58% 0 mm
04:00 23.1 °C 14.4 °C 1009.4 hPa SW 6.4 km/h 12.9 km/h 58% 0 mm
04:05 23.2 °C 14.4 °C 1009.4 hPa South 14.5 km/h 17.7 km/h 58% 0 mm
04:10 23.2 °C 14.4 °C 1009.4 hPa SW 6.4 km/h 17.7 km/h 58% 0 mm
04:15 23.3 °C 14.3 °C 1009.4 hPa SW 6.4 km/h 14.5 km/h 57% 0 mm
04:20 23.2 °C 14.2 °C 1009.4 hPa SSW 4.8 km/h 17.7 km/h 57% 0 mm
04:25 23.3 °C 14.3 °C 1009.4 hPa SW 12.9 km/h 14.5 km/h 57% 0 mm
04:30 23.3 °C 14.1 °C 1009.4 hPa WSW 3.2 km/h 14.5 km/h 56% 0 mm
04:35 23.3 °C 14.1 °C 1009.4 hPa SW 6.4 km/h 14.5 km/h 56% 0 mm
04:40 23.4 °C 14.1 °C 1009.4 hPa SW 8 km/h 20.9 km/h 56% 0 mm
04:45 23.5 °C 14.2 °C 1009.4 hPa SW 8 km/h 20.9 km/h 56% 0 mm
04:50 23.6 °C 14 °C 1009.4 hPa SSE 6.4 km/h 20.9 km/h 55% 0 mm
04:55 23.7 °C 14.1 °C 1009.4 hPa West 8 km/h 17.7 km/h 55% 0 mm
05:00 23.7 °C 14.1 °C 1009.4 hPa SW 3.2 km/h 14.5 km/h 55% 0 mm
05:05 23.6 °C 14 °C 1009.4 hPa SW 6.4 km/h 14.5 km/h 55% 0 mm
05:10 23.6 °C 14 °C 1009.4 hPa SW 6.4 km/h 16.1 km/h 55% 0 mm
05:15 23.7 °C 14.1 °C 1009.4 hPa SW 8 km/h 19.3 km/h 55% 0 mm
05:20 23.7 °C 14.2 °C 1009.4 hPa SW 6.4 km/h 17.7 km/h 55% 0 mm
05:25 23.8 °C 14.2 °C 1009.4 hPa South 6.4 km/h 16.1 km/h 55% 0 mm
05:30 23.8 °C 14.5 °C 1009.4 hPa West 6.4 km/h 17.7 km/h 56% 0 mm
05:35 23.7 °C 14.4 °C 1009.4 hPa SW 8 km/h 17.7 km/h 56% 0 mm
05:40 23.7 °C 14.4 °C 1009.4 hPa SW 8 km/h 19.3 km/h 56% 0 mm
05:45 23.8 °C 14.5 °C 1009.4 hPa SW 9.7 km/h 20.9 km/h 56% 0 mm
05:50 23.8 °C 14.5 °C 1009.7 hPa SW 8 km/h 16.1 km/h 56% 0 mm
05:55 23.7 °C 14.7 °C 1009.7 hPa SSW 8 km/h 12.9 km/h 57% 0 mm
06:00 23.5 °C 14.5 °C 1009.4 hPa SW 8 km/h 19.3 km/h 57% 0 mm
06:05 23.5 °C 14.8 °C 1009.4 hPa SW 8 km/h 19.3 km/h 58% 0 mm
06:10 23.5 °C 14.8 °C 1009.4 hPa SW 8 km/h 17.7 km/h 58% 0 mm
06:15 23.4 °C 14.7 °C 1009.4 hPa SSW 6.4 km/h 16.1 km/h 58% 0 mm
06:20 23.4 °C 14.7 °C 1009.4 hPa SSW 8 km/h 12.9 km/h 58% 0 mm
06:25 23.3 °C 14.8 °C 1009.7 hPa SW 6.4 km/h 12.9 km/h 59% 0 mm
06:30 23.2 °C 14.8 °C 1009.7 hPa SW 4.8 km/h 11.3 km/h 59% 0 mm
06:35 23.2 °C 14.9 °C 1009.7 hPa SW 4.8 km/h 12.9 km/h 60% 0 mm
06:40 23.3 °C 15.1 °C 1009.7 hPa South 1.6 km/h 8 km/h 60% 0 mm
06:45 23.4 °C 14.9 °C 1009.7 hPa SSW 4.8 km/h 11.3 km/h 59% 0 mm
06:50 23.4 °C 14.9 °C 1009.7 hPa SSE 3.2 km/h 11.3 km/h 59% 0 mm
06:55 23.5 °C 15.3 °C 1009.7 hPa SSW 8 km/h 11.3 km/h 60% 0 mm
07:00 23.7 °C 15.2 °C 1009.7 hPa SW 3.2 km/h 14.5 km/h 59% 0 mm
07:05 23.8 °C 15.3 °C 1009.7 hPa SW 6.4 km/h 14.5 km/h 59% 0 mm
07:10 23.9 °C 15.2 °C 1009.7 hPa SW 6.4 km/h 16.1 km/h 58% 0 mm
07:15 23.9 °C 15.4 °C 1009.4 hPa SW 8 km/h 17.7 km/h 59% 0 mm
07:20 23.9 °C 15.4 °C 1009.4 hPa SW 6.4 km/h 17.7 km/h 59% 0 mm
07:25 23.9 °C 15.4 °C 1009.4 hPa SSW 4.8 km/h 14.5 km/h 59% 0 mm
07:30 24.1 °C 15.6 °C 1009.4 hPa SW 12.9 km/h 16.1 km/h 59% 0 mm
07:35 24 °C 15.5 °C 1009.4 hPa SW 8 km/h 16.1 km/h 59% 0 mm
07:40 23.9 °C 15.4 °C 1009 hPa SW 17.7 km/h 19.3 km/h 59% 0 mm
07:45 23.9 °C 15.4 °C 1009.4 hPa SW 12.9 km/h 24.1 km/h 59% 0 mm
07:50 24.1 °C 15.6 °C 1009 hPa SSW 4.8 km/h 20.9 km/h 59% 0 mm
07:55 24.2 °C 15.7 °C 1009 hPa SW 4.8 km/h 24.1 km/h 59% 0 mm
08:00 24.6 °C 15.5 °C 1009 hPa SW 8 km/h 16.1 km/h 57% 0 mm
08:05 24.9 °C 16.1 °C 1009 hPa SW 8 km/h 16.1 km/h 58% 0 mm
08:10 24.9 °C 15.8 °C 1009 hPa SW 8 km/h 16.1 km/h 57% 0 mm
08:15 24.8 °C 16 °C 1009 hPa SSW 8 km/h 19.3 km/h 58% 0 mm
08:20 24.8 °C 15.7 °C 1009 hPa SW 8 km/h 20.9 km/h 57% 0 mm
08:25 24.7 °C 15.6 °C 1009 hPa SW 12.9 km/h 22.5 km/h 57% 0 mm
08:30 24.6 °C 15.5 °C 1009 hPa SSW 11.3 km/h 20.9 km/h 57% 0 mm
08:35 24.7 °C 15.8 °C 1008.7 hPa SW 9.7 km/h 20.9 km/h 58% 0 mm
08:40 24.8 °C 15.7 °C 1009 hPa SSW 9.7 km/h 20.9 km/h 57% 0 mm
08:45 24.9 °C 15.8 °C 1008.7 hPa SSW 9.7 km/h 20.9 km/h 57% 0 mm
08:50 25.1 °C 16.2 °C 1008.7 hPa SW 4.8 km/h 19.3 km/h 58% 0 mm
08:55 25.2 °C 16.1 °C 1008.7 hPa SW 3.2 km/h 19.3 km/h 57% 0 mm
09:00 25.2 °C 16.1 °C 1008.7 hPa SSW 9.7 km/h 27.4 km/h 57% 0 mm
09:05 25.2 °C 15.8 °C 1008.7 hPa WSW 6.4 km/h 19.3 km/h 56% 0 mm
09:10 25.6 °C 16.1 °C 1008.7 hPa WSW 12.9 km/h 27.4 km/h 56% 0 mm
09:15 25.9 °C 16.2 °C 1008.7 hPa West 8 km/h 22.5 km/h 55% 0 mm
09:20 26.2 °C 16.7 °C 1008.7 hPa SSW 9.7 km/h 29 km/h 56% 0 mm
09:25 26.1 °C 16.1 °C 1009 hPa SW 16.1 km/h 30.6 km/h 54% 0 mm
09:30 26.1 °C 16.4 °C 1008.7 hPa West 11.3 km/h 27.4 km/h 55% 0 mm
09:35 26.2 °C 16.4 °C 1009 hPa SW 12.9 km/h 29 km/h 55% 0 mm
09:40 26.2 °C 16.7 °C 1008.7 hPa SW 12.9 km/h 29 km/h 56% 0 mm
09:45 26.3 °C 16.2 °C 1008.7 hPa SW 14.5 km/h 29 km/h 54% 0 mm
09:50 26.3 °C 16.2 °C 1008.7 hPa SW 14.5 km/h 29 km/h 54% 0 mm
09:55 26.2 °C 16.4 °C 1008.7 hPa SW 14.5 km/h 27.4 km/h 55% 0 mm
10:00 26.3 °C 16.5 °C 1008.7 hPa SW 14.5 km/h 30.6 km/h 55% 0 mm
10:05 26.4 °C 16.3 °C 1008.7 hPa West 12.9 km/h 29 km/h 54% 0 mm
10:10 26.6 °C 17.1 °C 1008.7 hPa SW 9.7 km/h 25.7 km/h 56% 0 mm
10:15 26.7 °C 16.9 °C 1008.7 hPa WSW 11.3 km/h 30.6 km/h 55% 0 mm
10:20 26.8 °C 16.7 °C 1008.7 hPa WSW 19.3 km/h 29 km/h 54% 0 mm
10:25 26.8 °C 16.4 °C 1008.7 hPa West 25.7 km/h 30.6 km/h 53% 0 mm
10:30 26.9 °C 16.8 °C 1009 hPa WSW 17.7 km/h 32.2 km/h 54% 0 mm
10:35 26.9 °C 16.8 °C 1009 hPa WSW 17.7 km/h 37 km/h 54% 0 mm
10:40 26.8 °C 16.7 °C 1009 hPa WNW 17.7 km/h 37 km/h 54% 0 mm
10:45 26.8 °C 17.1 °C 1008.7 hPa WSW 17.7 km/h 41.8 km/h 55% 0 mm
10:50 27 °C 16.9 °C 1009 hPa WSW 29 km/h 32.2 km/h 54% 0 mm
10:55 27.2 °C 17.3 °C 1009 hPa SW 16.1 km/h 35.4 km/h 55% 0 mm
11:00 27.1 °C 16.9 °C 1008.7 hPa WSW 16.1 km/h 35.4 km/h 54% 0 mm
11:05 27.1 °C 17 °C 1008.7 hPa SW 16.1 km/h 32.2 km/h 54% 0 mm
11:10 27.3 °C 17.5 °C 1008.7 hPa SW 12.9 km/h 32.2 km/h 55% 0 mm
11:15 27.4 °C 17.6 °C 1008.7 hPa WSW 12.9 km/h 29 km/h 55% 0 mm
11:20 27.4 °C 17.3 °C 1008.7 hPa WNW 20.9 km/h 38.6 km/h 54% 0 mm
11:25 27.4 °C 17.3 °C 1008.7 hPa WSW 14.5 km/h 38.6 km/h 54% 0 mm
11:30 27.4 °C 17.6 °C 1009 hPa WSW 16.1 km/h 30.6 km/h 55% 0 mm
11:35 27.4 °C 17.3 °C 1008.7 hPa SW 24.1 km/h 29 km/h 54% 0 mm
11:45 26.9 °C 17.1 °C 1008.7 hPa WSW 22.5 km/h 35.4 km/h 55% 0 mm
11:50 27.1 °C 17.5 °C 1009 hPa WSW 17.7 km/h 38.6 km/h 56% 0 mm
11:55 27.1 °C 17.6 °C 1009 hPa WSW 20.9 km/h 38.6 km/h 56% 0 mm
12:00 27.3 °C 17.4 °C 1009 hPa WSW 17.7 km/h 35.4 km/h 55% 0 mm
12:05 27.4 °C 17.3 °C 1009 hPa WSW 16.1 km/h 35.4 km/h 54% 0 mm
12:10 27.3 °C 17.5 °C 1009 hPa WSW 17.7 km/h 37 km/h 55% 0 mm
12:15 27.3 °C 17.4 °C 1009 hPa WSW 19.3 km/h 37 km/h 55% 0 mm
12:20 27.3 °C 17.5 °C 1009 hPa WSW 19.3 km/h 37 km/h 55% 0 mm
12:25 27.6 °C 18 °C 1009 hPa WSW 9.7 km/h 32.2 km/h 56% 0 mm
12:30 27.7 °C 17.5 °C 1009 hPa WNW 8 km/h 40.2 km/h 54% 0 mm
12:35 27.7 °C 17.8 °C 1009 hPa West 17.7 km/h 35.4 km/h 55% 0 mm
12:40 27.4 °C 17.3 °C 1009 hPa West 16.1 km/h 30.6 km/h 54% 0 mm
12:45 27.3 °C 17.4 °C 1009 hPa WNW 24.1 km/h 35.4 km/h 55% 0 mm
12:50 27.1 °C 17.2 °C 1008.7 hPa West 12.9 km/h 32.2 km/h 55% 0 mm
12:55 26.9 °C 17.7 °C 1008.7 hPa WSW 17.7 km/h 38.6 km/h 57% 0 mm
13:00 27 °C 17.8 °C 1008.7 hPa WSW 17.7 km/h 38.6 km/h 57% 0 mm
13:05 26.9 °C 17.7 °C 1008.7 hPa WSW 16.1 km/h 35.4 km/h 57% 0 mm
13:10 27.1 °C 18.1 °C 1008.7 hPa West 12.9 km/h 38.6 km/h 58% 0 mm
13:15 27.4 °C 17.6 °C 1008.4 hPa NW 24.1 km/h 32.2 km/h 55% 0 mm
13:20 27.6 °C 17.7 °C 1008.4 hPa West 17.7 km/h 41.8 km/h 55% 0 mm
13:25 27.6 °C 18 °C 1008.4 hPa WSW 17.7 km/h 41.8 km/h 56% 0 mm
13:30 27.9 °C 18.3 °C 1008.4 hPa WSW 16.1 km/h 32.2 km/h 56% 0 mm
13:35 27.8 °C 17.7 °C 1008.4 hPa WSW 16.1 km/h 45.1 km/h 54% 0 mm
13:40 27.9 °C 18.1 °C 1008 hPa WNW 20.9 km/h 33.8 km/h 55% 0 mm
13:45 27.9 °C 18 °C 1008 hPa SW 17.7 km/h 27.4 km/h 55% 0 mm
13:50 27.9 °C 18.1 °C 1008 hPa West 29 km/h 29 km/h 55% 0 mm
13:55 27.9 °C 17.4 °C 1007.7 hPa WSW 17.7 km/h 40.2 km/h 53% 0 mm
14:00 27.8 °C 17.9 °C 1007.7 hPa West 14.5 km/h 40.2 km/h 55% 0 mm
14:05 27.8 °C 17.6 °C 1007.7 hPa WSW 14.5 km/h 38.6 km/h 54% 0 mm
14:10 28.3 °C 17.8 °C 1007.7 hPa West 19.3 km/h 37 km/h 53% 0 mm
14:15 28.4 °C 17.6 °C 1007.7 hPa SW 8 km/h 25.7 km/h 52% 0 mm
14:20 28.2 °C 18 °C 1007.7 hPa WSW 14.5 km/h 32.2 km/h 54% 0 mm
14:25 27.9 °C 17.8 °C 1007.3 hPa WSW 14.5 km/h 35.4 km/h 54% 0 mm
14:30 27.7 °C 17.8 °C 1007.7 hPa WSW 16.1 km/h 35.4 km/h 55% 0 mm
14:35 27.8 °C 17.7 °C 1007.3 hPa WSW 12.9 km/h 27.4 km/h 54% 0 mm
14:40 27.8 °C 17.9 °C 1007.3 hPa WSW 12.9 km/h 27.4 km/h 55% 0 mm
14:45 27.6 °C 18.6 °C 1007.3 hPa SW 16.1 km/h 29 km/h 58% 0 mm
14:50 27.2 °C 17.6 °C 1007.7 hPa WSW 16.1 km/h 37 km/h 56% 0 mm
14:55 25.9 °C 16.8 °C 1008 hPa WSW 25.7 km/h 25.7 km/h 57% 0 mm
15:00 24.6 °C 16.6 °C 1008 hPa WSW 11.3 km/h 27.4 km/h 61% 0 mm
15:05 23.9 °C 16.2 °C 1007.7 hPa WSW 17.7 km/h 32.2 km/h 62% 0 mm
15:10 23.8 °C 16.4 °C 1007.7 hPa SW 11.3 km/h 29 km/h 63% 0 mm
15:15 24.3 °C 16.8 °C 1007.3 hPa SW 14.5 km/h 19.3 km/h 63% 0 mm
15:20 24.6 °C 16.6 °C 1007.3 hPa WSW 11.3 km/h 27.4 km/h 61% 0 mm
15:25 24.8 °C 17.1 °C 1007.3 hPa WSW 12.9 km/h 27.4 km/h 62% 0 mm
15:30 24.9 °C 16.9 °C 1007.3 hPa WSW 12.9 km/h 24.1 km/h 61% 0 mm
15:35 24.4 °C 16.7 °C 1007.3 hPa WSW 12.9 km/h 25.7 km/h 62% 0 mm
15:40 24.3 °C 16.8 °C 1007.3 hPa NW 11.3 km/h 27.4 km/h 63% 0 mm
15:45 24.5 °C 16.5 °C 1007.3 hPa South 11.3 km/h 24.1 km/h 61% 0 mm
15:50 24.9 °C 16.8 °C 1007.3 hPa WSW 12.9 km/h 24.1 km/h 61% 0 mm
15:55 25.2 °C 16.8 °C 1007.3 hPa WSW 11.3 km/h 22.5 km/h 60% 0 mm
16:00 25.7 °C 16.8 °C 1007 hPa West 14.5 km/h 27.4 km/h 58% 0 mm
16:05 25.8 °C 16.9 °C 1007 hPa WSW 16.1 km/h 29 km/h 58% 0 mm
16:10 26.2 °C 16.7 °C 1007 hPa WSW 14.5 km/h 32.2 km/h 56% 0 mm
16:15 26.5 °C 17 °C 1007 hPa West 11.3 km/h 25.7 km/h 56% 0 mm
16:20 26.6 °C 16.8 °C 1007 hPa West 8 km/h 35.4 km/h 55% 0 mm
16:25 26.4 °C 16.9 °C 1007 hPa SW 12.9 km/h 25.7 km/h 56% 0 mm
16:30 26.2 °C 17.1 °C 1007 hPa WSW 16.1 km/h 24.1 km/h 57% 0 mm
16:35 26 °C 17.1 °C 1007.3 hPa South 11.3 km/h 25.7 km/h 58% 0 mm
16:40 25.1 °C 16.3 °C 1007.3 hPa South 8 km/h 22.5 km/h 58% 0 mm
16:45 24.4 °C 16.2 °C 1007.3 hPa SW 12.9 km/h 30.6 km/h 60% 0 mm
16:50 24.3 °C 16.3 °C 1007.3 hPa WSW 12.9 km/h 30.6 km/h 61% 0 mm
16:55 24.2 °C 15.7 °C 1007.3 hPa WSW 12.9 km/h 29 km/h 59% 0 mm
17:00 24.5 °C 16.2 °C 1007.3 hPa WSW 12.9 km/h 29 km/h 60% 0 mm
17:15 24.7 °C 15.9 °C 1007 hPa WSW 12.9 km/h 30.6 km/h 58% 0 mm
17:20 24.8 °C 15.7 °C 1007 hPa WSW 12.9 km/h 30.6 km/h 57% 0 mm
17:25 24.8 °C 15.7 °C 1007 hPa WNW 14.5 km/h 25.7 km/h 57% 0 mm
17:30 24.8 °C 15.7 °C 1007 hPa SW 16.1 km/h 29 km/h 57% 0 mm
17:35 24.6 °C 15.7 °C 1007 hPa SSW 11.3 km/h 27.4 km/h 58% 0 mm
17:40 24.6 °C 16 °C 1006.7 hPa South 12.9 km/h 30.6 km/h 59% 0 mm
17:45 24.5 °C 15.7 °C 1006.7 hPa WSW 14.5 km/h 30.6 km/h 58% 0 mm
17:50 24.4 °C 15.6 °C 1006.7 hPa WSW 14.5 km/h 29 km/h 58% 0 mm
17:55 24.1 °C 15.6 °C 1006.7 hPa WSW 14.5 km/h 30.6 km/h 59% 0 mm
18:00 23.9 °C 15.4 °C 1006.7 hPa West 8 km/h 22.5 km/h 59% 0 mm
18:05 23.8 °C 15.3 °C 1006.7 hPa WSW 16.1 km/h 38.6 km/h 59% 0 mm
18:10 23.7 °C 15.2 °C 1006.7 hPa WSW 16.1 km/h 38.6 km/h 59% 0 mm
18:15 23.6 °C 15.3 °C 1006.7 hPa WSW 16.1 km/h 32.2 km/h 60% 0 mm
18:20 23.5 °C 15 °C 1006.7 hPa WSW 9.7 km/h 38.6 km/h 59% 0 mm
18:25 23.4 °C 15.2 °C 1006.7 hPa WSW 16.1 km/h 27.4 km/h 60% 0 mm
18:30 23.3 °C 15.1 °C 1006.3 hPa SW 9.7 km/h 25.7 km/h 60% 0 mm
18:35 23.3 °C 15.3 °C 1006.3 hPa NW 16.1 km/h 29 km/h 61% 0 mm
18:40 23.3 °C 15.1 °C 1006.3 hPa WSW 12.9 km/h 29 km/h 60% 0 mm
18:45 23.3 °C 15.1 °C 1006.3 hPa WSW 11.3 km/h 24.1 km/h 60% 0 mm
18:50 23.3 °C 15.1 °C 1006.3 hPa WSW 11.3 km/h 24.1 km/h 60% 0 mm
18:55 23.4 °C 15.2 °C 1006.7 hPa WSW 9.7 km/h 22.5 km/h 60% 0 mm
19:00 23.3 °C 15.1 °C 1006.7 hPa SSW 3.2 km/h 16.1 km/h 60% 0 mm
19:05 23.1 °C 14.9 °C 1006.7 hPa SSW 16.1 km/h 22.5 km/h 60% 0 mm
19:10 22.8 °C 14.9 °C 1006.7 hPa West 8 km/h 27.4 km/h 61% 0 mm
19:15 22.7 °C 14.5 °C 1006.7 hPa SW 11.3 km/h 27.4 km/h 60% 0 mm
19:20 22.5 °C 14.6 °C 1006.7 hPa SW 11.3 km/h 24.1 km/h 61% 0 mm
19:25 22.4 °C 14.6 °C 1006.7 hPa SW 16.1 km/h 30.6 km/h 61% 0 mm
19:30 22.4 °C 14.6 °C 1006.7 hPa SSW 12.9 km/h 27.4 km/h 61% 0 mm
19:35 22.6 °C 14.7 °C 1006.7 hPa SW 9.7 km/h 27.4 km/h 61% 0 mm
19:40 22.6 °C 14.7 °C 1006.7 hPa WSW 16.1 km/h 27.4 km/h 61% 0 mm
19:45 22.7 °C 14.8 °C 1006.7 hPa SW 14.5 km/h 27.4 km/h 61% 0 mm
19:50 22.6 °C 14.7 °C 1006.7 hPa SW 12.9 km/h 27.4 km/h 61% 0 mm
19:55 22.4 °C 14.6 °C 1006.7 hPa SW 11.3 km/h 27.4 km/h 61% 0 mm
20:00 22.2 °C 14.6 °C 1007 hPa SW 14.5 km/h 20.9 km/h 62% 0 mm
20:05 21.9 °C 14.3 °C 1007 hPa SW 6.4 km/h 22.5 km/h 62% 0 mm
20:10 21.7 °C 14.3 °C 1007 hPa WSW 8 km/h 19.3 km/h 63% 0 mm
20:15 21.6 °C 14.4 °C 1007 hPa WSW 9.7 km/h 19.3 km/h 64% 0 mm
20:20 21.6 °C 14.5 °C 1006.7 hPa SW 9.7 km/h 20.9 km/h 64% 0 mm
20:25 21.7 °C 14.6 °C 1006.7 hPa SW 11.3 km/h 20.9 km/h 64% 0 mm
20:30 21.8 °C 14.5 °C 1006.7 hPa SSE 12.9 km/h 22.5 km/h 63% 0 mm
20:35 22.1 °C 14.4 °C 1006.7 hPa WSW 14.5 km/h 25.7 km/h 62% 0 mm
20:40 22.1 °C 14.5 °C 1006.7 hPa SW 12.9 km/h 25.7 km/h 62% 0 mm
20:45 22 °C 14.4 °C 1006.7 hPa SW 11.3 km/h 25.7 km/h 62% 0 mm
20:50 21.9 °C 14.3 °C 1006.7 hPa SW 4.8 km/h 17.7 km/h 62% 0 mm
20:55 21.8 °C 14.2 °C 1006.7 hPa SSW 6.4 km/h 17.7 km/h 62% 0 mm
21:00 21.8 °C 14.4 °C 1006.7 hPa SW 6.4 km/h 16.1 km/h 63% 0 mm
21:05 21.7 °C 14.1 °C 1006.7 hPa SSW 6.4 km/h 17.7 km/h 62% 0 mm
21:10 21.7 °C 14.4 °C 1006.7 hPa SW 8 km/h 17.7 km/h 63% 0 mm
21:15 21.6 °C 14.3 °C 1007 hPa SW 8 km/h 17.7 km/h 63% 0 mm
21:20 21.6 °C 14.3 °C 1007 hPa SW 8 km/h 17.7 km/h 63% 0 mm
21:25 21.6 °C 14.5 °C 1007 hPa SW 8 km/h 16.1 km/h 64% 0 mm
21:30 21.5 °C 14.2 °C 1007 hPa SW 4.8 km/h 19.3 km/h 63% 0 mm
21:35 21.3 °C 13.9 °C 1007.3 hPa SW 9.7 km/h 19.3 km/h 63% 0 mm
21:40 21.1 °C 13.7 °C 1007.3 hPa SW 8 km/h 19.3 km/h 63% 0 mm
21:45 20.9 °C 13.9 °C 1007.3 hPa SW 9.7 km/h 19.3 km/h 64% 0 mm
21:50 20.8 °C 13.7 °C 1007.3 hPa West 16.1 km/h 22.5 km/h 64% 0 mm
21:55 20.8 °C 13.7 °C 1007.3 hPa WSW 11.3 km/h 27.4 km/h 64% 0 mm
22:00 20.8 °C 13.5 °C 1007.3 hPa WNW 9.7 km/h 32.2 km/h 63% 0 mm
22:05 20.8 °C 13.5 °C 1007.3 hPa WSW 12.9 km/h 32.2 km/h 63% 0 mm
22:10 20.8 °C 13.5 °C 1007.3 hPa WSW 11.3 km/h 24.1 km/h 63% 0 mm
22:15 20.9 °C 13.6 °C 1007.7 hPa West 14.5 km/h 25.7 km/h 63% 0 mm
22:20 21 °C 13.4 °C 1008.4 hPa WNW 16.1 km/h 25.7 km/h 62% 0 mm
22:25 21.1 °C 13.5 °C 1008.4 hPa WNW 6.4 km/h 22.5 km/h 62% 0 mm
22:30 21.3 °C 13.5 °C 1008.4 hPa WNW 9.7 km/h 22.5 km/h 61% 0 mm
22:35 21.9 °C 13.5 °C 1008.4 hPa West 11.3 km/h 35.4 km/h 59% 0 mm
22:40 22.3 °C 13.6 °C 1008.4 hPa West 12.9 km/h 35.4 km/h 58% 0 mm
22:45 22.8 °C 13.8 °C 1008.7 hPa WSW 12.9 km/h 25.7 km/h 57% 0 mm
22:50 23.1 °C 13.8 °C 1008.7 hPa WSW 11.3 km/h 35.4 km/h 56% 0 mm
22:55 23.4 °C 14.2 °C 1009 hPa West 12.9 km/h 37 km/h 56% 0 mm
23:00 23.5 °C 14.2 °C 1009 hPa North 9.7 km/h 29 km/h 56% 0 mm
23:05 23.3 °C 14.3 °C 1008.7 hPa West 4.8 km/h 29 km/h 57% 0 mm
23:10 23.3 °C 14.6 °C 1008.7 hPa NW 8 km/h 25.7 km/h 58% 0 mm
23:15 23.2 °C 14.7 °C 1008.7 hPa West 12.9 km/h 25.7 km/h 59% 0 mm
23:20 23 °C 14.8 °C 1009 hPa WSW 4.8 km/h 19.3 km/h 60% 0 mm
23:25 22.9 °C 14.9 °C 1009 hPa West 6.4 km/h 22.5 km/h 61% 0 mm
23:30 22.7 °C 15 °C 1009 hPa West 8 km/h 22.5 km/h 62% 0 mm
23:35 22.4 °C 14.7 °C 1009 hPa West 8 km/h 19.3 km/h 62% 0 mm
23:40 22.1 °C 14.7 °C 1009 hPa WSW 8 km/h 19.3 km/h 63% 0 mm
23:45 21.8 °C 14.7 °C 1009 hPa WSW 6.4 km/h 14.5 km/h 64% 0 mm
23:50 21.5 °C 14.7 °C 1008.7 hPa WSW 3.2 km/h 14.5 km/h 65% 0 mm
23:55 21.3 °C 14.7 °C 1008.7 hPa West 11.3 km/h 17.7 km/h 66% 0 mm
Buffalo, New York, USA
Compliments of Weather Underground - 2.5 mb